Time,TemperatureF,DewpointF,PressureIn,WindDirection,WindDirectionDegrees,WindSpeedMPH,WindSpeedGustMPH,Humidity,HourlyPrecipIn,Conditions,Clouds,dailyrainin,SoftwareType,DateUTC
2013-06-03 00:01:00,68.0,66.0,29.87,SW,219,0.0,0.0,94,0.00,,,0.05,,2013-06-03 04:01:00,
2013-06-03 00:23:00,68.0,66.0,29.87,SW,219,0.0,0.0,94,0.00,,,0.05,,2013-06-03 04:23:00,
2013-06-03 00:33:00,68.0,66.0,29.87,SW,219,0.0,0.0,94,0.00,,,0.05,,2013-06-03 04:33:00,
2013-06-03 00:42:00,68.0,66.0,29.87,SW,219,0.0,0.0,94,0.00,,,0.05,,2013-06-03 04:42:00,
2013-06-03 00:53:00,68.0,66.0,29.87,SW,219,0.0,0.0,94,0.00,,,0.05,,2013-06-03 04:53:00,
2013-06-03 01:01:00,68.0,67.0,29.86,West,275,0.0,1.0,95,0.04,,,0.09,,2013-06-03 05:01:00,
2013-06-03 01:13:00,68.0,67.0,29.86,West,275,0.0,1.0,95,0.04,,,0.09,,2013-06-03 05:13:00,
2013-06-03 01:22:00,68.0,67.0,29.86,West,275,0.0,1.0,95,0.04,,,0.09,,2013-06-03 05:22:00,
2013-06-03 01:32:00,68.0,67.0,29.86,West,275,0.0,1.0,95,0.04,,,0.09,,2013-06-03 05:32:00,
2013-06-03 01:43:00,68.0,67.0,29.86,West,275,0.0,1.0,95,0.04,,,0.09,,2013-06-03 05:43:00,
2013-06-03 01:52:00,68.0,67.0,29.86,West,275,0.0,1.0,95,0.04,,,0.09,,2013-06-03 05:52:00,
2013-06-03 02:01:00,68.0,67.0,29.85,WNW,295,0.0,1.0,96,0.00,,,0.09,,2013-06-03 06:01:00,
2013-06-03 02:22:00,68.0,67.0,29.85,WNW,295,0.0,1.0,96,0.00,,,0.09,,2013-06-03 06:22:00,
2013-06-03 02:32:00,68.0,67.0,29.85,WNW,295,0.0,1.0,96,0.00,,,0.09,,2013-06-03 06:32:00,
2013-06-03 02:42:00,68.0,67.0,29.85,WNW,295,0.0,1.0,96,0.00,,,0.09,,2013-06-03 06:42:00,
2013-06-03 02:53:00,68.0,67.0,29.85,WNW,295,0.0,1.0,96,0.00,,,0.09,,2013-06-03 06:53:00,
2013-06-03 03:01:00,68.0,67.0,29.83,WSW,243,0.0,0.0,96,0.02,,,0.11,,2013-06-03 07:01:00,
2013-06-03 03:22:00,68.0,67.0,29.83,WSW,243,0.0,0.0,96,0.02,,,0.11,,2013-06-03 07:22:00,
2013-06-03 03:32:00,68.0,67.0,29.83,WSW,243,0.0,0.0,96,0.02,,,0.11,,2013-06-03 07:32:00,
2013-06-03 03:42:00,68.0,67.0,29.83,WSW,243,0.0,0.0,96,0.02,,,0.11,,2013-06-03 07:42:00,
2013-06-03 03:52:00,68.0,67.0,29.83,WSW,243,0.0,0.0,96,0.02,,,0.11,,2013-06-03 07:52:00,
2013-06-03 04:01:00,67.0,66.0,29.83,WSW,243,0.0,1.0,96,0.02,,,0.13,,2013-06-03 08:01:00,
2013-06-03 04:22:00,67.0,66.0,29.83,WSW,243,0.0,1.0,96,0.02,,,0.13,,2013-06-03 08:22:00,
2013-06-03 04:32:00,67.0,66.0,29.83,WSW,243,0.0,1.0,96,0.02,,,0.13,,2013-06-03 08:32:00,
2013-06-03 04:42:00,67.0,66.0,29.83,WSW,243,0.0,1.0,96,0.02,,,0.13,,2013-06-03 08:42:00,
2013-06-03 04:52:00,67.0,66.0,29.83,WSW,243,0.0,1.0,96,0.02,,,0.13,,2013-06-03 08:52:00,
2013-06-03 05:01:00,67.0,66.0,29.83,WSW,237,0.0,4.0,96,0.00,,,0.13,,2013-06-03 09:01:00,
2013-06-03 05:22:00,67.0,66.0,29.83,WSW,237,0.0,4.0,96,0.00,,,0.13,,2013-06-03 09:22:00,
2013-06-03 05:33:00,67.0,66.0,29.83,WSW,237,0.0,4.0,96,0.00,,,0.13,,2013-06-03 09:33:00,
2013-06-03 05:43:00,67.0,66.0,29.83,WSW,237,0.0,4.0,96,0.00,,,0.13,,2013-06-03 09:43:00,
2013-06-03 05:53:00,67.0,66.0,29.83,WSW,237,0.0,4.0,96,0.00,,,0.13,,2013-06-03 09:53:00,
2013-06-03 06:01:00,66.0,65.0,29.83,SW,227,1.0,4.0,96,0.01,,,0.14,,2013-06-03 10:01:00,
2013-06-03 06:22:00,66.0,65.0,29.83,SW,227,1.0,4.0,96,0.01,,,0.14,,2013-06-03 10:22:00,
2013-06-03 06:33:00,66.0,65.0,29.83,SW,227,1.0,4.0,96,0.01,,,0.14,,2013-06-03 10:33:00,
2013-06-03 06:42:00,66.0,65.0,29.83,SW,227,1.0,4.0,96,0.01,,,0.14,,2013-06-03 10:42:00,
2013-06-03 06:52:00,66.0,65.0,29.83,SW,227,1.0,4.0,96,0.01,,,0.14,,2013-06-03 10:52:00,
2013-06-03 07:02:00,66.0,65.0,29.85,SW,236,0.0,4.0,96,0.00,,,0.00,,2013-06-03 11:02:00,
2013-06-03 07:22:00,66.0,65.0,29.85,SW,236,0.0,4.0,96,0.00,,,0.00,,2013-06-03 11:22:00,
2013-06-03 07:32:00,66.0,65.0,29.85,SW,236,0.0,4.0,96,0.00,,,0.00,,2013-06-03 11:32:00,
2013-06-03 07:42:00,66.0,65.0,29.85,SW,236,0.0,4.0,96,0.00,,,0.00,,2013-06-03 11:42:00,
2013-06-03 07:52:00,66.0,65.0,29.85,SW,236,0.0,4.0,96,0.00,,,0.00,,2013-06-03 11:52:00,
2013-06-03 08:02:00,66.0,65.0,29.87,SW,236,0.0,1.0,96,0.01,,,0.01,,2013-06-03 12:02:00,
2013-06-03 08:22:00,66.0,65.0,29.87,SW,236,0.0,1.0,96,0.01,,,0.01,,2013-06-03 12:22:00,
2013-06-03 08:32:00,66.0,65.0,29.87,SW,236,0.0,1.0,96,0.01,,,0.01,,2013-06-03 12:32:00,
2013-06-03 08:42:00,66.0,65.0,29.87,SW,236,0.0,1.0,96,0.01,,,0.01,,2013-06-03 12:42:00,
2013-06-03 08:52:00,66.0,65.0,29.87,SW,236,0.0,1.0,96,0.01,,,0.01,,2013-06-03 12:52:00,
2013-06-03 09:02:00,66.0,65.0,29.85,SW,214,0.0,7.0,97,0.00,,,0.01,,2013-06-03 13:02:00,
2013-06-03 09:22:00,66.0,65.0,29.85,SW,214,0.0,7.0,97,0.00,,,0.01,,2013-06-03 13:22:00,
2013-06-03 09:33:00,66.0,65.0,29.85,SW,214,0.0,7.0,97,0.00,,,0.01,,2013-06-03 13:33:00,
2013-06-03 09:43:00,66.0,65.0,29.85,SW,214,0.0,7.0,97,0.00,,,0.01,,2013-06-03 13:43:00,
2013-06-03 09:53:00,66.0,65.0,29.85,SW,214,0.0,7.0,97,0.00,,,0.01,,2013-06-03 13:53:00,
2013-06-03 10:02:00,70.0,68.0,29.84,SW,214,2.0,7.0,94,0.00,,,0.01,,2013-06-03 14:02:00,
2013-06-03 10:22:00,70.0,68.0,29.84,SW,214,2.0,7.0,94,0.00,,,0.01,,2013-06-03 14:22:00,
2013-06-03 10:33:00,70.0,68.0,29.84,SW,214,2.0,7.0,94,0.00,,,0.01,,2013-06-03 14:33:00,
2013-06-03 10:42:00,70.0,68.0,29.84,SW,214,2.0,7.0,94,0.00,,,0.01,,2013-06-03 14:42:00,
2013-06-03 10:52:00,70.0,68.0,29.84,SW,214,2.0,7.0,94,0.00,,,0.01,,2013-06-03 14:52:00,
2013-06-03 11:02:00,72.0,69.0,29.86,NNW,331,1.0,4.0,89,0.00,,,0.01,,2013-06-03 15:02:00,
2013-06-03 11:22:00,72.0,69.0,29.86,NNW,331,1.0,4.0,89,0.00,,,0.01,,2013-06-03 15:22:00,
2013-06-03 11:33:00,72.0,69.0,29.86,NNW,331,1.0,4.0,89,0.00,,,0.01,,2013-06-03 15:33:00,
2013-06-03 11:43:00,72.0,69.0,29.86,NNW,331,1.0,4.0,89,0.00,,,0.01,,2013-06-03 15:43:00,
2013-06-03 11:53:00,72.0,69.0,29.86,NNW,331,1.0,4.0,89,0.00,,,0.01,,2013-06-03 15:53:00,
2013-06-03 12:01:00,75.0,68.0,29.84,West,279,0.0,4.0,80,0.00,,,0.01,,2013-06-03 16:01:00,
2013-06-03 12:23:00,75.0,68.0,29.84,West,279,0.0,4.0,80,0.00,,,0.01,,2013-06-03 16:23:00,
2013-06-03 12:33:00,75.0,68.0,29.84,West,279,0.0,4.0,80,0.00,,,0.01,,2013-06-03 16:33:00,
2013-06-03 12:42:00,75.0,68.0,29.84,West,279,0.0,4.0,80,0.00,,,0.01,,2013-06-03 16:42:00,
2013-06-03 12:53:00,75.0,68.0,29.84,West,279,0.0,4.0,80,0.00,,,0.01,,2013-06-03 16:53:00,
2013-06-03 13:01:00,75.0,68.0,29.84,NE,46,0.0,4.0,78,0.00,,,0.01,,2013-06-03 17:01:00,
2013-06-03 13:22:00,75.0,68.0,29.84,NE,46,0.0,4.0,78,0.00,,,0.01,,2013-06-03 17:22:00,
2013-06-03 13:33:00,75.0,68.0,29.84,NE,46,0.0,4.0,78,0.00,,,0.01,,2013-06-03 17:33:00,
2013-06-03 13:42:00,75.0,68.0,29.84,NE,46,0.0,4.0,78,0.00,,,0.01,,2013-06-03 17:42:00,
2013-06-03 13:52:00,75.0,68.0,29.84,NE,46,0.0,4.0,78,0.00,,,0.01,,2013-06-03 17:52:00,
2013-06-03 14:01:00,75.0,68.0,29.83,NNW,330,0.0,0.0,78,0.00,,,0.01,,2013-06-03 18:01:00,
2013-06-03 14:12:00,75.0,68.0,29.83,NNW,330,0.0,0.0,78,0.00,,,0.01,,2013-06-03 18:12:00,
2013-06-03 14:22:00,75.0,68.0,29.83,NNW,330,0.0,0.0,78,0.00,,,0.01,,2013-06-03 18:22:00,
2013-06-03 14:32:00,75.0,68.0,29.83,NNW,330,0.0,0.0,78,0.00,,,0.01,,2013-06-03 18:32:00,
2013-06-03 14:43:00,75.0,68.0,29.83,NNW,330,0.0,0.0,78,0.00,,,0.01,,2013-06-03 18:43:00,
2013-06-03 14:53:00,75.0,68.0,29.83,NNW,330,0.0,0.0,78,0.00,,,0.01,,2013-06-03 18:53:00,
2013-06-03 15:01:00,74.0,66.0,29.83,WSW,240,0.0,6.0,75,0.00,,,0.01,,2013-06-03 19:01:00,
2013-06-03 15:23:00,74.0,66.0,29.83,WSW,240,0.0,6.0,75,0.00,,,0.01,,2013-06-03 19:23:00,
2013-06-03 15:33:00,74.0,66.0,29.83,WSW,240,0.0,6.0,75,0.00,,,0.01,,2013-06-03 19:33:00,
2013-06-03 15:42:00,74.0,66.0,29.83,WSW,240,0.0,6.0,75,0.00,,,0.01,,2013-06-03 19:42:00,
2013-06-03 15:53:00,74.0,66.0,29.83,WSW,240,0.0,6.0,75,0.00,,,0.01,,2013-06-03 19:53:00,
2013-06-03 16:01:00,76.0,66.0,29.83,NW,313,1.0,4.0,71,0.00,,,0.01,,2013-06-03 20:01:00,
2013-06-03 16:22:00,76.0,66.0,29.83,NW,313,1.0,4.0,71,0.00,,,0.01,,2013-06-03 20:22:00,
2013-06-03 16:33:00,76.0,66.0,29.83,NW,313,1.0,4.0,71,0.00,,,0.01,,2013-06-03 20:33:00,
2013-06-03 16:43:00,76.0,66.0,29.83,NW,313,1.0,4.0,71,0.00,,,0.01,,2013-06-03 20:43:00,
2013-06-03 16:52:00,76.0,66.0,29.83,NW,313,1.0,4.0,71,0.00,,,0.01,,2013-06-03 20:52:00,
2013-06-03 17:01:00,76.0,65.0,29.83,WNW,298,2.0,6.0,68,0.00,,,0.01,,2013-06-03 21:01:00,
2013-06-03 17:22:00,76.0,65.0,29.83,WNW,298,2.0,6.0,68,0.00,,,0.01,,2013-06-03 21:22:00,
2013-06-03 17:33:00,76.0,65.0,29.83,WNW,298,2.0,6.0,68,0.00,,,0.01,,2013-06-03 21:33:00,
2013-06-03 17:43:00,76.0,65.0,29.83,WNW,298,2.0,6.0,68,0.00,,,0.01,,2013-06-03 21:43:00,
2013-06-03 17:53:00,76.0,65.0,29.83,WNW,298,2.0,6.0,68,0.00,,,0.01,,2013-06-03 21:53:00,
2013-06-03 18:01:00,75.0,64.0,29.83,West,259,0.0,5.0,69,0.00,,,0.01,,2013-06-03 22:01:00,
2013-06-03 18:23:00,75.0,64.0,29.83,West,259,0.0,5.0,69,0.00,,,0.01,,2013-06-03 22:23:00,
2013-06-03 18:33:00,75.0,64.0,29.83,West,259,0.0,5.0,69,0.00,,,0.01,,2013-06-03 22:33:00,
2013-06-03 18:42:00,75.0,64.0,29.83,West,259,0.0,5.0,69,0.00,,,0.01,,2013-06-03 22:42:00,
2013-06-03 18:53:00,75.0,64.0,29.83,West,259,0.0,5.0,69,0.00,,,0.01,,2013-06-03 22:53:00,
2013-06-03 19:01:00,75.0,63.0,29.83,West,263,0.0,3.0,66,0.00,,,0.01,,2013-06-03 23:01:00,
2013-06-03 19:23:00,75.0,63.0,29.83,West,263,0.0,3.0,66,0.00,,,0.01,,2013-06-03 23:23:00,
2013-06-03 19:32:00,75.0,63.0,29.83,West,263,0.0,3.0,66,0.00,,,0.01,,2013-06-03 23:32:00,
2013-06-03 19:42:00,75.0,63.0,29.83,West,263,0.0,3.0,66,0.00,,,0.01,,2013-06-03 23:42:00,
2013-06-03 19:52:00,75.0,63.0,29.83,West,263,0.0,3.0,66,0.00,,,0.01,,2013-06-03 23:52:00,
2013-06-03 20:02:00,74.0,62.0,29.85,WSW,240,0.0,3.0,67,0.00,,,0.00,,2013-06-04 00:02:00,
2013-06-03 20:22:00,74.0,62.0,29.85,WSW,240,0.0,3.0,67,0.00,,,0.00,,2013-06-04 00:22:00,
2013-06-03 20:32:00,74.0,62.0,29.85,WSW,240,0.0,3.0,67,0.00,,,0.00,,2013-06-04 00:32:00,
2013-06-03 20:42:00,74.0,62.0,29.85,WSW,240,0.0,3.0,67,0.00,,,0.00,,2013-06-04 00:42:00,
2013-06-03 20:52:00,74.0,62.0,29.85,WSW,240,0.0,3.0,67,0.00,,,0.00,,2013-06-04 00:52:00,
2013-06-03 21:02:00,71.0,60.0,29.86,SW,223,0.0,4.0,69,0.00,,,0.00,,2013-06-04 01:02:00,
2013-06-03 21:22:00,71.0,60.0,29.86,SW,223,0.0,4.0,69,0.00,,,0.00,,2013-06-04 01:22:00,
2013-06-03 21:32:00,71.0,60.0,29.86,SW,223,0.0,4.0,69,0.00,,,0.00,,2013-06-04 01:32:00,
2013-06-03 21:42:00,71.0,60.0,29.86,SW,223,0.0,4.0,69,0.00,,,0.00,,2013-06-04 01:42:00,
2013-06-03 21:53:00,71.0,60.0,29.86,SW,223,0.0,4.0,69,0.00,,,0.00,,2013-06-04 01:53:00,
2013-06-03 22:02:00,70.0,60.0,29.88,SW,221,2.0,9.0,70,0.00,,,0.00,,2013-06-04 02:02:00,
2013-06-03 22:22:00,70.0,60.0,29.88,SW,221,2.0,9.0,70,0.00,,,0.00,,2013-06-04 02:22:00,
2013-06-03 22:32:00,70.0,60.0,29.88,SW,221,2.0,9.0,70,0.00,,,0.00,,2013-06-04 02:32:00,
2013-06-03 22:42:00,70.0,60.0,29.88,SW,221,2.0,9.0,70,0.00,,,0.00,,2013-06-04 02:42:00,
2013-06-03 22:52:00,70.0,60.0,29.88,SW,221,2.0,9.0,70,0.00,,,0.00,,2013-06-04 02:52:00,
2013-06-03 23:02:00,67.0,60.0,29.88,NNW,337,0.0,1.0,77,0.00,,,0.00,,2013-06-04 03:02:00,
2013-06-03 23:22:00,67.0,60.0,29.88,NNW,337,0.0,1.0,77,0.00,,,0.00,,2013-06-04 03:22:00,
2013-06-03 23:33:00,67.0,60.0,29.88,NNW,337,0.0,1.0,77,0.00,,,0.00,,2013-06-04 03:33:00,
2013-06-03 23:43:00,67.0,60.0,29.88,NNW,337,0.0,1.0,77,0.00,,,0.00,,2013-06-04 03:43:00,
2013-06-03 23:54:00,67.0,60.0,29.88,NNW,337,0.0,1.0,77,0.00,,,0.00,,2013-06-04 03:54:00,